Regional Weather Roundup
Issued by NWS Jackson, KY

Home | Current Version | Previous Version | Text Only | Print | Product List | Glossary On
Versions: 1 2 3 4 5 6 7 8 9 10 11 12 13 14 15 16 17 18 19 20 21 22 23 24 25 26 27 28 29 30 31 32 33 34 35 36 37 38 39 40 41 42 43 44 45 46 47 48 49 50
689
ASUS43 KJKL 280610
RWRJKL

EAST KENTUCKY HOURLY WEATHER ROUNDUP
NATIONAL WEATHER SERVICE JACKSON KY
100 AM EST TUE FEB 28 2017

NOTE: "FAIR" INDICATES FEW OR NO CLOUDS BELOW 12,000 FEET WITH
NO SIGNIFICANT WEATHER AND/OR OBSTRUCTIONS TO VISIBILITY.

* THESE REPORTS ARE NOT UNDER NWS QUALITY CONTROL AND MAY NOT
  REPORT WEATHER SUCH AS PRECIPITATION AND FOG.

KYZ079-080-083-085-087-088-110-112-115-119-120-280700
...EASTERN KENTUCKY...

CITY           SKY/WX    TMP DP  RH WIND       PRES   REMARKS
JACKSON        CLEAR     48  34  58 CALM      30.22F
6HR MIN TEMP:  47; 6HR MAX TEMP:  51;

LONDON         CLEAR     39  33  79 CALM      30.22F
6HR MIN TEMP:  39; 6HR MAX TEMP:  52;

SOMERSET*      CLEAR     41  36  81 CALM      30.22F
MONTICELLO*    CLEAR     48  44  86 E7        30.22F
6HR MIN TEMP:  37; 6HR MAX TEMP:  52;

WILLIAMSBURG*  CLEAR     48  41  76 SE6       30.23F
MIDDLESBORO*   CLEAR     38  35  90 CALM      30.27F
6HR MIN TEMP:  37; 6HR MAX TEMP:  52;

HARLAN APT*    CLEAR     45  32  61 CALM      30.26S
PIKE CO APT*     N/A     51  31  46 SE6       30.23F
BIG SANDY APT* CLEAR     49  32  53 SE3       30.23F
6HR MIN TEMP:  47; 6HR MAX TEMP:  53;

MOREHEAD APT*  CLEAR     46  32  57 CALM      30.23F
ASHLAND*       CLEAR     36  34  93 CALM      30.22S
$$

KYZ035-036-041-042-044-050-067-078-099-280700
...CENTRAL KENTUCKY...

CITY           SKY/WX    TMP DP  RH WIND       PRES   REMARKS
FLEMING/MASON* CLEAR     43  34  70 S7        30.21F
DANVILLE*      CLEAR     43  39  87 S5        30.20F
LEXINGTON      CLEAR     45  37  73 S9        30.19F
6HR MIN TEMP:  45; 6HR MAX TEMP:  52;

FRANKFORT      CLOUDY    46  37  71 SE6       30.17F
6HR MIN TEMP:  42; 6HR MAX TEMP:  49;

LOUISVILLE     CLOUDY    50  40  68 SE9       30.13F
6HR MIN TEMP:  49; 6HR MAX TEMP:  56;

LEBANON*         N/A     48  41  76 S10       30.18F
GLASGOW*       CLOUDY    49  42  77 SE6       30.16F
BOWLING GREEN  PTCLDY    49  44  83 SE6       30.15F
6HR MIN TEMP:  48; 6HR MAX TEMP:  58;

$$

KYZ091>093-OHZ055-061-077-WVZ005-015-034-035-042-280700
...SOUTHERN OHIO/WEST VIRGINIA...

CITY           SKY/WX    TMP DP  RH WIND       PRES   REMARKS
COVINGTON      CLOUDY    45  40  82 S10       30.15F
COLUMBUS       CLOUDY    41  38  89 SE5       30.21F
DAYTON         CLOUDY    41  38  89 SE9       30.17F
WILMINGTON     CLOUDY    41  37  86 S6        30.19F
HUNTINGTON     CLEAR     41  38  89 E6        30.22F
CHARLESTON     PTCLDY    43  38  82 CALM      30.23F
PINEVILLE*     CLEAR     38  32  77 MISG      30.32S
BECKLEY        CLEAR     45  28  51 S13       30.27F
BLUEFIELD      CLEAR     45  29  53 SE7       30.30S
LOGAN CO APT*    N/A     52  30  43 VRB5      30.24S
$$

VAZ002-007-008-TNZ017-027-036-066-071-280700
...SOUTHWEST VIRGINIA/EAST TENNESSEE...

CITY           SKY/WX    TMP DP  RH WIND       PRES   REMARKS
WISE*          CLEAR     50  36  57 S9        30.26F
JONESVILLE*      N/A     37  36  93 CALM      30.30F
ABINGDON*      CLEAR     44  33  64 E5        30.30S
BRISTOL        CLEAR     43  36  76 CALM      30.29R
MORRISTOWN*    PTCLDY    39  36  87 CALM      30.26F
SEVIERVILLE*   CLEAR     36  34  93 CALM      30.27F
KNOXVILLE      PTCLDY    43  38  82 CALM      30.26F
LAFOLLETTE*    CLEAR     37  36  93 CALM      30.29F
OAK RIDGE      CLEAR     45  40  82 CALM      30.28F
CROSSVILLE     CLOUDY    49  44  83 S7        30.24F
NASHVILLE      MOCLDY    52  46  80 S9        30.16F
$$

...KEY TO REMARKS...
VSB - VISIBILITY IN MILES
WCI - WIND CHILL INDEX
HX  - HEAT INDEX

$$




USA.gov is the U.S. government's official web portal to all federal, state and local government web resources and services.